Location: Naalehu
(19.0640°N, 155.5860°W)
Time: 21:23:34
(UTC-10:00)

ISS - Visible Passes

Search period start: 16 June 2019 00:00
Search period end: 26 June 2019 00:00
Orbit: 408 x 418 km, 51.6° (Epoch: 17 June)

Date Brightness Start Highest point End Pass type
(mag) Time Alt. Az. Time Alt. Az. Time Alt. Az.
23 Jun -2.2 04:42:51 13° S 04:45:16 29° SE 04:48:11 10° ENE visible
24 Jun -1.1 03:55:41 13° SE 03:55:48 13° SE 03:57:25 10° E visible
25 Jun -3.6 04:41:17 30° WSW 04:42:37 56° NW 04:45:52 10° NNE visible
